Content
SEND FEEDBACK

Daily
Averages
Monthly
Summary
United States of America

JAMESTOWN, NEW YORK


Home > North America > United States > New York
Elevation: 1725 feet     Latitude: 42 09N     Longitude: 079 15W

WEATHER
 
SELECT A DAY
Number of Records: 351,929;   Date Range: 1/1/95 - 10/29/14
 
SHARE

PRINT THIS DATA

[ ← Previous Day ]
WEATHER ALMANAC - AUGUST 14, 2013
[ Next Day → ]
[ °C ]   °F
Weather ElementAverageHighLow
Temperature55.8 °F62.6 °F (2:55 pm)51.8 °F (12:35 am)
Dewpoint47.1 °F51.8 °F (8:55 am)42.8 °F (12:35 am)
Humidity73.5 %94 % (8:55 am)52 % (2:55 pm)
Barometer30.04 in30.15 in (11:35 pm)29.94 in (2:35 am)
Wind Speed9.8 mph16.1 mph (2:55 pm)
Wind Gust21.9 mph (2:15 pm)
Weather ElementAverage
Visibility9.8 mi
Wind DirectionWNW (295.7 °)

Weather ElementTotal
Precipitation0.02 in
Heating Degree Days7.8 (Base 65)
Growing Degree Days7.2 (Base 50)
Averaged from 69 records on August 14, 2013
WEATHER CONDITIONS BREAKOUT
WIND DIRECTION BREAKOUT
WEATHER BY HOUR - AUGUST 14, 2013
[ °C ]   °F
Local TimeTemperatureDewpointHumidityBarometerVisibilityWind DirectionWind SpeedGust SpeedPrecipitationEventsConditions
12:35 AM51.8 °F42.8 °F71 %29.95 in10.0 miWest (280°)9.2 mphOvercast
12:55 AM51.8 °F44.6 °F76 %29.95 in10.0 miWest (280°)9.2 mphOvercast
1:15 AM51.8 °F44.6 °F76 %29.95 in10.0 miWNW (290°)8.1 mphOvercast
1:35 AM53.6 °F44.6 °F72 %29.95 in10.0 miWNW (290°)10.4 mphOvercast
1:55 AM51.8 °F44.6 °F76 %29.95 in10.0 miWNW (290°)8.1 mphMostly Cloudy
2:15 AM51.8 °F44.6 °F76 %29.95 in10.0 miWest (280°)8.1 mphMostly Cloudy
2:35 AM53.6 °F44.6 °F72 %29.94 in10.0 miWest (280°)9.2 mphOvercast
2:55 AM51.8 °F46.4 °F82 %29.94 in10.0 miWNW (300°)10.4 mph17.3 mphMostly Cloudy
3:15 AM51.8 °F46.4 °F82 %29.94 in10.0 miWNW (300°)12.7 mph16.1 mphMostly Cloudy
3:35 AM51.8 °F46.4 °F82 %29.94 in10.0 miWNW (290°)12.7 mphMostly Cloudy
3:55 AM51.8 °F46.4 °F82 %29.94 in10.0 miWNW (290°)9.2 mph16.1 mphOvercast
4:15 AM51.8 °F46.4 °F82 %29.94 in9.0 miWNW (300°)9.2 mph17.3 mphMostly Cloudy
4:35 AM51.8 °F46.4 °F82 %29.95 in10.0 miWNW (300°)9.2 mphMostly Cloudy
4:55 AM51.8 °F46.4 °F82 %29.95 in10.0 miWNW (300°)11.5 mphMostly Cloudy
5:15 AM51.8 °F46.4 °F82 %29.95 in9.0 miWNW (300°)11.5 mphOvercast
5:35 AM51.8 °F46.4 °F82 %29.95 in8.0 miWNW (290°)11.5 mph16.1 mphOvercast
5:55 AM51.8 °F46.4 °F82 %29.96 in9.0 miWNW (290°)10.4 mphOvercast
6:15 AM51.8 °F48.2 °F88 %29.96 in10.0 miNW (320°)9.2 mph16.1 mphOvercast
6:35 AM51.8 °F48.2 °F88 %29.97 in7.0 miNW (310°)10.4 mph0.01 inOvercast
6:55 AM51.8 °F48.2 °F88 %29.98 in10.0 miNW (310°)8.1 mph0.01 inOvercast
7:15 AM51.8 °F48.2 °F88 %29.98 in10.0 miNW (320°)6.9 mphOvercast
7:35 AM51.8 °F48.2 °F88 %29.99 in10.0 miNNW (330°)9.2 mphOvercast
7:55 AM51.8 °F48.2 °F88 %29.99 in10.0 miNW (320°)5.8 mphMostly Cloudy
8:15 AM53.6 °F48.2 °F82 %30.00 in10.0 miNW (320°)8.1 mphOvercast
8:35 AM53.6 °F50.0 °F88 %30.01 in10.0 miNNW (330°)6.9 mphOvercast
8:55 AM53.6 °F51.8 °F94 %30.01 in10.0 miNW (320°)8.1 mphMostly Cloudy
9:15 AM53.6 °F50.0 °F88 %30.02 in10.0 miNW (320°)10.4 mphMostly Cloudy
9:35 AM53.6 °F50.0 °F88 %30.02 in10.0 miNW (310°)13.8 mphOvercast
9:55 AM53.6 °F50.0 °F88 %30.03 in5.0 miNNW (330°)11.5 mph17.3 mphMostly Cloudy
10:15 AM53.6 °F50.0 °F88 %30.03 in10.0 miNW (310°)13.8 mph17.3 mphMostly Cloudy
10:35 AM55.4 °F50.0 °F82 %30.04 in10.0 miNW (320°)11.5 mphMostly Cloudy
10:55 AM55.4 °F48.2 °F77 %30.05 in10.0 miNNW (330°)10.4 mphMostly Cloudy
11:15 AM55.4 °F48.2 °F77 %30.06 in10.0 miNW (320°)11.5 mph17.3 mphOvercast
11:35 AM57.2 °F48.2 °F72 %30.07 in10.0 miNW (310°)11.5 mph19.6 mphOvercast
11:55 AM57.2 °F48.2 °F72 %30.07 in10.0 miNW (320°)12.7 mphMostly Cloudy
12:15 PM57.2 °F48.2 °F72 %30.07 in10.0 miNNW (340°)8.1 mphMostly Cloudy
12:35 PM57.2 °F46.4 °F67 %30.08 in10.0 miNW (310°)11.5 mphOvercast
12:55 PM59.0 °F48.2 °F67 %30.07 in10.0 miWNW (300°)13.8 mphMostly Cloudy
1:15 PM60.8 °F48.2 °F63 %30.08 in10.0 miWNW (290°)10.4 mph16.1 mphMostly Cloudy
1:35 PM60.8 °F48.2 °F63 %30.08 in10.0 miWNW (300°)10.4 mph17.3 mphMostly Cloudy
1:55 PM60.8 °F46.4 °F59 %30.08 in10.0 miNW (310°)12.7 mphMostly Cloudy
2:15 PM60.8 °F46.4 °F59 %30.08 in10.0 miNW (310°)11.5 mph21.9 mphMostly Cloudy
2:35 PM60.8 °F44.6 °F55 %30.09 in10.0 miWNW (300°)11.5 mphScattered Clouds
2:55 PM62.6 °F44.6 °F52 %30.08 in10.0 miNW (310°)16.1 mphScattered Clouds
3:55 PM62.6 °F46.4 °F55 %30.09 in10.0 miNNW (340°)10.4 mphPartly Cloudy
4:15 PM62.6 °F46.4 °F55 %30.09 in10.0 miNW (310°)11.5 mphScattered Clouds
4:35 PM62.6 °F46.4 °F55 %30.09 in10.0 miNW (320°)10.4 mphMostly Cloudy
4:55 PM60.8 °F46.4 °F59 %30.09 in10.0 miNW (320°)11.5 mphMostly Cloudy
5:15 PM62.6 °F46.4 °F55 %30.10 in10.0 miWNW (300°)12.7 mphPartly Cloudy
5:35 PM62.6 °F46.4 °F55 %30.10 in10.0 miWNW (300°)9.2 mphMostly Cloudy
5:55 PM62.6 °F46.4 °F55 %30.11 in10.0 miWest (280°)9.2 mphMostly Cloudy
6:15 PM60.8 °F46.4 °F59 %30.11 in10.0 miWNW (300°)10.4 mphScattered Clouds
6:35 PM60.8 °F46.4 °F59 %30.11 in10.0 miWNW (300°)9.2 mphClear
6:55 PM60.8 °F46.4 °F59 %30.11 in10.0 miWest (280°)9.2 mphClear
7:15 PM60.8 °F46.4 °F59 %30.10 in10.0 miWest (280°)8.1 mphClear
7:35 PM59.0 °F46.4 °F63 %30.11 in10.0 miWest (270°)8.1 mphClear
7:55 PM57.2 °F46.4 °F67 %30.11 in10.0 miWest (260°)6.9 mphClear
8:15 PM57.2 °F46.4 °F67 %30.11 in10.0 miWSW (250°)6.9 mphClear
8:35 PM55.4 °F46.4 °F72 %30.12 in10.0 miWSW (250°)6.9 mphClear
8:55 PM55.4 °F46.4 °F72 %30.12 in10.0 miWSW (250°)6.9 mphClear
9:15 PM55.4 °F46.4 °F72 %30.13 in10.0 miWSW (250°)9.2 mphClear
9:35 PM55.4 °F46.4 °F72 %30.13 in10.0 miWSW (240°)8.1 mphClear
9:55 PM55.4 °F46.4 °F72 %30.14 in10.0 miWSW (250°)8.1 mphPartly Cloudy
10:15 PM55.4 °F48.2 °F77 %30.14 in10.0 miWSW (250°)8.1 mphScattered Clouds
10:35 PM55.4 °F48.2 °F77 %30.13 in10.0 miWSW (240°)8.1 mphPartly Cloudy
10:55 PM53.6 °F48.2 °F82 %30.13 in10.0 miWSW (250°)6.9 mphMostly Cloudy
11:15 PM55.4 °F48.2 °F77 %30.14 in10.0 miWest (260°)10.4 mphMostly Cloudy
11:35 PM55.4 °F48.2 °F77 %30.15 in10.0 miWest (280°)6.9 mphClear
11:55 PM53.6 °F48.2 °F82 %30.15 in10.0 miWNW (300°)8.1 mphClear
Hourly data recorded from KJHW, located miles away from Jamestown, New York







STORIES FROM OUR PARTNERS